Location: Darmstadt
(49.8706°N, 8.6494°E)
Time: 07:13:15
(UTC+01:00)

Cosmos 1340 - Pass Details

Date: 31 October 2020
Orbit: 501 x 504 km, 81.2° (Epoch: 03 December)

Event Time Altitude Azimuth Distance (km) Brightness Sun altitude
Rises 17:41:52 0° 350° (N) 2,620 6.2 -6.7°
Reaches altitude 10° 17:44:02 10° 354° (N) 1,730 5.3 -7.0°
Maximum altitude 17:47:48 60° 76° (ENE) 584 2.7 -7.6°
Drops below altitude 10° 17:51:31 10° 157° (SSE) 1,716 5.2 -8.2°
Sets 17:53:39 0° 161° (SSE) 2,595 6.2 -8.5°
